Location: Bun Machan
(52.1403°N, 7.3744°W)
Time: 08:33:40
(UTC+00:00)

ATLAS 5 CENTAUR R/B - Pass Details

Date: 14 July 2020
Orbit: 275 x 14307 km, 60.7° (Epoch: 04 August)

Event Time Altitude Azimuth Distance (km) Brightness Sun altitude
Rises 02:40:04 0° 301° (WNW) 2,335 5.1 -11.4°
Reaches altitude 10° 02:41:28 10° 292° (WNW) 1,732 4.3 -11.3°
Maximum altitude 02:44:44 42° 219° (SW) 1,206 3.1 -11.0°
Drops below altitude 10° 02:54:10 10° 154° (SSE) 4,981 6.4 -10.3°
Sets 03:01:28 0° 150° (SSE) 7,887 7.4 -9.7°
